SUNSAT

导读 | 星芒AI

SUNSAT 是南非第一颗由学生自主设计、建造和操作的微小卫星,于1999年发射。该卫星重约60公斤,主要用于教育和研究目的,搭载了多种实验设备,如高分辨率摄像机和通信系统。SUNSAT 项目由南非斯泰伦博斯大学主导,旨在培养航天工程人才并推动国家航天技术发展。卫星成功在轨运行多年,为南非在航天领域的自主能力奠定了基础。

基本信息
目录编号:
25636
目录名称:
SUNSAT
国际标识:
1999-008C
轨道中心:
EARTH
卫星名称:
SUNSAT
卫星全名:
--
卫星状态:
在轨 (已飞行9748 天)
发射日期:
1999-02-23 UTC
国别 :
(ZA)
星等 :
--
轨道信息
数据来源 国际轨道数据
星历时间: 2025-11-01T22:10:59+0800
6小时前
查看轨道信息
半长轴: 7115.914km
偏心率: 0.014142
轨道倾角: 96.482°
近地点辐角 332.548°
升交点赤经 230.606°
平近点角 26.830°
近地点: 637.145km
远地点: 838.413km
周期: 99.565分钟
每日圈数: 14.462946
详细信息
使用方式:
暂无
2D轨道图
3D轨道图
轨道高度分析图
轨道倾角分析图
轨道综合分析图
查看轨道综合分析图